Showing default

KINEIS-1D, 60082

Orbit data source: Space-Track

KINEIS-1D, 60082 is a French payload satellite in SSO that was launched on Thu, 20 Jun 2024 UTC via an ELECTRON launch vehicle from the Rocket Lab Launch Complex (RLLC). Payload-class satellites include a variety of spacecraft equipped with specific instruments for various scientific and technological missions. These include communications satellites like Starlink; space stations such as the ISS; scientific satellites like the Hubble; Earth observation satellites from companies like Planet Labs, Umbra, and HawkEye 360; GPS; miniature CubeSats for education and research; and military/defense satellites.

Loading next visibility...
Identifier
60082, 2024-114D
Orbit
SSO
Last TLE update
3 hours ago
Origin
Manufacturer
KINEIS
Mission
Operational Commercial Communications
Bus & Motor
CUBESAT 16U, Unknown motor
Mass
28 kg wet, 28 kg dry
Launch date (UTC)
2024-06-20 (11 months ago)
Launch vehicle
ELECTRON
Launch site
Rocket Lab Launch Complex (RLLC)
Object type
Payload
Rocket body
Debris
Shape & HBR
Box + 2 Pan + 1 Ant, 1.6 m
Radar Cross Section
0.229 m², Medium (>0.1 m² and < 1m²)

Expand to show TLE details & history

TLE from 3 hours ago
0 KINEIS-1D
1 60082U 24114D   25129.18093175  .00001058  00000-0  16280-3 0  9995
2 60082  98.0120 148.3372 0002849  73.2347 286.9174 14.75538093 47536
Epoch: 2025-05-09T04:20Z
Definitive object data (Epoch: 2025-05-09T04:20:32.503Z)
Latitude
-0.00006°
Longitude
-144.03899°
Altitude
645.874 km
Speed
7.535 km/s
True Right ascension
09h 53m 20s
True Declination
0° 00' 00"
Sunlit
Object was in daylight at TLE epoch
Visualization TLE readout
Latitude
-61.05477°
Longitude
21.41056°
Altitude
668.914 km
Speed
7.52 km/s
Apparent Right ascension
00h 47m 25s
Apparent Declination
-60° 36' 07"
Sunlit
Object is in daylight
Visualization observer readout
Local Sidereal Time
15:12:41
Azimuth
144.95° SSE
Elevation
-59.587°
Doppler factor
1
Orbital elements
Apogee altitude
642.495 km
Perigee altitude
638.496 km
Semi-major axis
7,018.633 km
Eccentricity
0.0002849
Inclination
98.012°
RAAN
148.3372°
Arg. of periapsis
73.2347°
True anomaly
286.88616°
Mean anomaly
286.9174°
Eccentric anomaly
286.90178°
Mean motion
3.69117 °/min
BSTAR
0.0001628
Orbital period
97.53 mins
Loading maneuver chart data...
Loading SW <> Apogee altitude chart data...
Loading historical data...
Loading historical data...
Loading historical data...
Loading historical data...
Loading historical data...
Loading historical data...
Loading historical data...

KINEIS-1D Visibility forecast

Observer location: undefined°, undefined°

Span
Click to sort rows by Start time (UTC) header in descending order
Start Az.
Max El. time (UTC)
Max El. Az.
Max El.
End time (UTC)
End Az.
5 mins2025-05-09 13:04:45.548Z57.401° ENE2025-05-09 13:06:45.548Z87.226° E16.816°2025-05-09 13:09:45.548Z132.543° SE
7 mins2025-05-09 14:40:45.548Z350.709° N2025-05-09 14:43:45.548Z290.297° WNW32.526°2025-05-09 14:47:45.548Z220.621° SW
7 mins2025-05-10 01:37:45.548Z191.265° SSW2025-05-10 01:40:45.548Z264.19° W37.27°2025-05-10 01:44:45.548Z335.378° NNW
|